Сары-Таш

Киргизия     39°43′29″N   73°15′09″E
темп.,
°C
ветер,
м/с
пор.,
м/с
влажн.,
%
обл.,
%
осадки,
мм/ч
давл.,
гПа
погр.,
м
14 апреля, ср
ср1400:00−10зюз119588 0.4 103321
03:00−10ююз239584 0.0 103192
06:00−12юз3395100 0.0 103589
09:00−9юз3384100 0.0 103291
12:00−4юз336782 0.0 1024187
15:00−2юз2265100 0.0 1021188
18:00−3юз2277100 0.0 102267
21:00−11з118690 0.1 103011
15 апреля, чт
чт1500:00−12зюз1282100 0.1 103212
03:00−10ююз2283100 0.0 102815
06:00−9юз2282100 0.0 102617
09:00−5ююз1173100 0.0 102262
12:00−2ююз1177100 0.0 1020152
15:00−1юз1187100 0.0 1019166
18:00−1юз1182100 0.0 101936
21:00−6зюз0183100 0.0 102311
16 апреля, пт
пт1600:00−7зюз1184100 0.0 102512
03:00−7юз0182100 0.0 102313
06:00−7юз1183100 0.0 102312
09:00−5ю1184100 0.0 102263
12:00−2ю218416 0.0 1020145
15:00−1юз219024 0.0 1019154
18:00−1ююз2286100 0.1 101933
21:00−6св1194100 0.3 102411
17 апреля, сб
сб1700:00−7св0193100 0.6 102517
03:00−7вюв0090100 0.0 102329
06:00−6ююв0088100 0.0 102213
09:00−4юз1186100 0.0 102181
12:00−2ю1191100 0.1 1019175
15:00−1ююз1194100 0.3 1018208
18:00−1всв1192100 1.8 101798
21:00−2ссв1297100 4.3 102056
18 апреля, вс
вс1800:00−5ссз1191100 4.5 102012
03:00−6св1194100 0.1 102111
06:00−5ссв2297100 0.3 102052
09:00−4ссв1195100 1.3 1020228
12:00−3юз1197100 2.3 1019275
15:00−2ююз1289100 1.2 1018297
18:00−2сз129390 2.7 1019203
21:00−6с329395 1.0 102437